RADUGA 12 [-]

Last updated on June 27, 2019, 3:44 a.m. UTC

1 13974U 83028A   19176.93835240 -.00000192  00000-0  00000+0 0  9995
2 13974  13.1132 329.5463 0003842  25.6671 341.1860  1.00267017143828
UTC
Height (km)
Latitude
Longitude
Inclination
Orbital Period
UTC large
Height (km)
Speed (km/s)
/
Latitude / Longitude
Inclination (degrees)
Orbital Period (minutes)
Azimuth
Elevation
Range (km)
Doppler Factor
iOS Compass Heading
iOS Angle

Next 30 passes for location: Hong Kong

Rise time Rise Azimuth (degrees) Set time Set Azimuth (degrees) Duration Max altitude (degrees)

No matching passes for this satellites